Home   Weather   Danmarkshavn   Past weeks
Flag for Greenland

Past Weather in Danmarkshavn, Greenland — Yesterday and Last 2 Weeks

Now
-13 °F

Snow flurries. Overcast.


Feels Like: -13 °F
Forecast: N/A
Wind: 1 mph from Southeast

Location: Danmarkshavn

Current Time: Feb 16, 2019 at 5:49:06 pm

Latest Report: Feb 16, 2019 at 4:00 pm


Visibility: 6 mi

Pressure: 30.25 "Hg

Humidity: 74%

Dew Point: -19 °F

Location of DanmarkshavnLocation

Past Weather in Danmarkshavn — Graph

°F

Danmarkshavn Temperature Yesterday

Maximum temperature yesterday: -10 °F (at 9:00 am)
Minimum temperature yesterday: -27 °F (at 5:00 am)
Average temperature yesterday: -18 °F

High & Low Weather Summary for the Past Weeks

 TemperatureHumidityPressure
High14 °F (Feb 2, 11:00 am)87% (Feb 1, 11:00 pm)30.29 "Hg (Feb 1, 11:00 pm)
Low-36 °F (Feb 12, 7:00 am)44% (Feb 13, 2:00 pm)29.59 "Hg (Feb 13, 5:00 pm)
Average-11 °F68%29.99 "Hg
* Reported Feb 1 4:00 pm — Feb 16 4:00 pm, Danmarkshavn. Weather by CustomWeather, © 2019

Note: Actual official high and low records may vary slightly from our data, if they occured in-between our weather recording intervals... More about our weather records

Advertising

Danmarkshavn Weather History for the Previous 24 Hours

Scroll right to see more
 ConditionsComfort  
Time TempWeatherWind HumidityBarometerVisibility
4:00 pm
Sat, Feb 16
-13 °FSnow flurries. Overcast.1 mph74%30.25 "Hg6 mi
3:00 pm-13 °FSnow flurries. Overcast.1 mph73%30.24 "Hg11 mi
2:00 pm-9 °FSnow flurries. Overcast.12 mph63%30.21 "Hg5 mi
1:00 pm-9 °FSnow flurries. Overcast.17 mph64%30.19 "Hg2 mi
12:00 pm-8 °FSnow flurries. Overcast.22 mph65%30.15 "Hg1 mi
11:00 am-8 °FSnow flurries. Overcast.14 mph64%30.14 "Hg6 mi
10:00 am-8 °FSnow flurries. Overcast.17 mph68%30.11 "Hg2 mi
9:00 am-9 °FSnow flurries. Overcast.8 mph67%30.09 "Hg11 mi
8:00 am-8 °FSnow flurries. Overcast.10 mph66%30.04 "Hg5 mi
7:00 am-8 °FSnow flurries. Overcast.9 mph69%30.02 "Hg6 mi
6:00 am-6 °FSnow flurries. Overcast.7 mph64%29.98 "Hg4 mi
5:00 am-8 °FSnow. Overcast.33 mph69%29.93 "Hg0 mi
4:00 am-7 °FSnow. Overcast.32 mph69%29.91 "Hg1 mi
3:00 am-7 °FLight snow. Overcast.31 mph68%29.90 "Hg0 mi
2:00 am-5 °FLight snow. Overcast.6 mph65%29.90 "Hg6 mi
1:00 am-14 °FLight snow. Overcast.2 mph76%29.89 "Hg9 mi
12:00 am-14 °FLight snow. Overcast.1 mph75%29.87 "Hg6 mi
11:00 pm
Fri, Feb 15
-13 °FPassing clouds.3 mph73%29.85 "Hg31 mi
10:00 pm-12 °FPassing clouds.5 mph67%29.83 "Hg31 mi
9:00 pm-12 °FPassing clouds.2 mph69%29.83 "Hg31 mi
8:00 pm-18 °FPassing clouds.1 mph71%29.81 "Hg31 mi
7:00 pm-15 °FPassing clouds.1 mph71%29.79 "Hg31 mi
6:00 pm-18 °FPassing clouds.2 mph74%29.77 "Hg31 mi
5:00 pm-14 °FOvercast.7 mph65%29.76 "Hg31 mi
Weather by CustomWeather, © 2019

See weather overview